Theta_e
317 317 315 315 316 317 316 316 316 316 316 313 313 313 314 315 317 319 323 327 327 326 325 327 327 329 331 332 334 332 335 337 337 337 338 336 338 337 335 335 333 334 334
317 316 316 316 317 318 317 316 316 317 317 315 315 313 312 314 314 315 317 323 324 326 317 321 323 330 331 331 331 334 339 338 335 337 339 337 337 337 334 334 334 334 333
318 318 318 317 317 318 318 317 317 317 317 316 316 316 316 313 313 314 315 317 322 324 321 328 325 321 328 334 336 336 336 334 335 339 339 339 336 336 334 334 334 334 332
315 315 316 317 318 316 317 318 318 317 317 316 316 316 316 316 315 314 313 312 313 317 317 320 332 329 326 331 327 334 334 332 336 337 338 337 338 336 335 334 335 333 332
317 317 316 316 315 317 317 318 318 318 317 316 316 316 316 316 315 315 314 312 310 310 315 320 329 333 330 333 322 332 333 333 337 337 338 338 337 335 334 334 334 332 331
316 317 318 317 316 316 318 318 318 319 318 317 316 316 316 316 316 315 314 311 310 310 311 318 324 331 330 331 323 331 329 333 336 337 335 336 336 335 333 334 333 331 330
312 313 315 316 316 317 318 318 319 319 319 317 316 316 317 316 316 316 315 314 313 312 310 311 320 329 333 334 327 320 327 332 336 337 335 334 336 334 334 333 332 331 330
311 310 311 312 314 314 315 316 316 318 318 317 317 316 317 317 317 316 316 314 314 313 310 310 316 322 330 334 336 336 334 335 335 335 335 336 336 334 333 332 331 331 330
309 309 309 310 310 311 311 313 314 314 314 315 317 317 317 317 317 316 316 315 314 313 311 309 312 319 328 333 336 335 339 338 334 335 335 336 334 332 331 330 330 330 328
309 309 310 310 310 310 310 310 311 312 314 314 314 314 314 316 317 316 316 315 315 313 311 308 310 316 324 332 335 334 339 338 332 335 334 335 334 332 330 329 328 327 325
307 307 308 309 309 309 309 309 309 311 312 313 314 315 313 313 312 314 316 315 315 313 312 309 311 315 322 334 334 335 338 337 331 335 337 335 333 330 328 327 326 325 325
303 304 305 305 306 307 307 307 307 309 312 313 314 315 315 314 314 314 315 315 315 314 312 310 311 314 327 334 335 336 336 334 336 336 336 333 328 329 328 327 326 325 325
302 303 303 303 304 305 306 307 308 309 310 311 313 314 315 315 315 315 315 315 315 314 313 310 311 316 329 333 333 334 332 333 333 332 330 329 329 326 325 324 324 325 325
303 305 306 305 305 306 307 307 307 308 309 309 309 310 312 312 313 314 315 316 315 314 312 311 311 318 329 334 333 334 333 332 329 328 329 328 326 325 325 325 325 325 326
306 308 309 310 311 311 311 311 310 309 308 308 309 309 309 311 312 312 312 313 313 313 312 311 312 319 329 332 334 331 331 330 329 329 328 325 325 325 325 325 326 325 326
307 309 309 311 311 310 309 308 308 309 310 308 309 309 310 310 311 312 312 312 311 311 312 310 316 324 331 332 328 329 331 331 330 327 325 324 324 325 326 327 327 325 326
310 310 309 310 311 313 312 310 309 309 309 309 309 310 311 311 311 311 311 312 311 310 311 322 325 329 330 327 327 331 331 330 328 326 325 325 325 324 324 323 324 324 324
306 305 306 311 312 312 310 310 311 311 310 309 310 310 311 312 312 312 311 311 310 313 323 325 329 329 329 330 331 329 328 327 326 326 325 324 324 323 322 321 323 323 323
310 314 316 318 316 311 310 312 312 311 312 309 309 310 311 312 311 311 310 310 316 324 325 329 327 325 326 331 330 328 326 325 326 326 325 324 323 323 322 322 321 321 321
320 324 324 320 316 311 310 310 311 310 309 309 309 310 310 311 311 310 310 315 320 326 329 329 327 328 329 331 330 326 325 325 326 325 325 324 323 322 322 321 320 320 320
325 327 326 323 318 312 310 310 310 310 311 310 309 310 310 310 311 314 318 323 327 329 329 329 330 331 331 328 325 325 325 325 325 324 323 322 321 321 321 321 321 322 322
327 326 327 326 324 322 319 315 312 312 311 312 313 315 317 320 322 324 326 328 330 330 329 330 329 327 324 325 326 326 325 325 325 323 322 321 321 321 321 322 322 322 323
325 325 326 326 325 325 323 323 321 321 321 323 322 323 326 327 328 329 330 328 328 329 329 328 325 325 326 326 326 326 325 324 323 322 322 321 322 321 322 323 323 323 323
325 325 326 326 326 326 324 324 324 323 323 324 326 326 325 325 326 328 329 329 328 326 325 325 326 326 326 326 326 325 323 321 321 322 322 322 322 322 322 323 323 323 323
325 326 327 327 325 323 325 326 327 327 327 327 326 327 328 328 327 326 326 325 325 326 325 325 325 325 326 326 325 324 323 323 323 324 324 324 323 322 323 324 323 323 323
324 324 325 327 327 327 328 328 329 329 329 328 328 327 326 326 326 326 325 325 325 325 324 324 324 325 325 325 325 325 325 324 324 324 324 324 324 324 323 323 322 321 320
Wind_Speed
24 23 26 25 27 24 21 17 16 14 14 14 17 20 23 24 24 26 30 29 30 34 39 39 44 45 41 34 30 37 38 33 36 49 48 41 30 20 18 20 14 18 20
36 31 32 31 33 32 28 25 22 21 18 15 15 16 18 20 23 25 25 25 27 28 32 33 36 35 35 35 33 37 38 36 35 43 40 37 28 23 19 17 14 19 19
44 42 44 40 37 39 36 32 30 27 24 21 18 18 17 16 18 20 23 24 26 27 30 26 30 31 31 28 29 32 34 29 31 31 31 33 29 20 21 21 17 18 19
26 30 37 47 50 41 41 39 36 34 29 28 26 23 20 19 19 19 20 22 24 24 23 25 25 24 26 30 34 34 33 27 30 25 33 35 28 19 23 21 20 18 20
16 23 30 36 43 51 46 45 43 42 37 33 32 30 27 25 22 23 23 25 24 26 26 25 27 22 21 27 32 36 27 29 32 29 27 34 27 23 25 21 20 18 19
17 18 16 25 35 43 44 47 47 47 43 40 39 37 34 31 28 25 24 23 22 23 29 28 26 24 22 21 28 29 28 36 37 33 28 36 29 25 20 22 21 19 19
25 23 19 18 19 21 31 38 44 49 48 46 45 44 41 37 33 30 28 26 29 29 28 31 28 23 24 21 26 26 34 33 34 20 26 32 21 22 18 21 20 20 16
35 35 33 31 31 29 29 30 32 36 43 47 50 51 47 42 38 35 33 30 30 30 25 28 30 29 26 24 25 26 29 24 17 19 21 15 16 14 16 14 13 14 15
46 44 42 40 40 39 42 42 42 41 43 44 44 48 51 47 42 40 36 35 32 31 29 28 30 29 26 27 24 24 23 26 22 24 20 17 16 15 15 15 17 15 16
45 45 44 43 42 42 40 39 42 44 45 47 50 50 53 53 47 42 39 38 35 30 30 29 30 30 24 27 24 26 27 30 25 19 17 18 16 16 15 14 15 15 15
46 46 48 49 49 50 50 49 46 43 46 48 49 49 49 50 48 43 42 42 38 32 32 30 29 26 25 24 23 25 29 30 22 18 18 17 17 17 15 15 14 14 16
48 46 47 50 53 50 47 50 50 47 47 49 52 52 52 51 48 43 41 43 39 36 35 33 32 24 22 25 23 25 27 24 23 21 19 18 17 15 14 13 13 13 13
45 45 46 50 54 53 50 47 45 46 48 44 41 43 47 49 49 46 41 41 41 38 35 34 31 24 23 18 24 24 21 23 22 21 19 17 13 11 10 10 13 14 12
44 44 45 48 49 49 49 49 47 47 49 49 48 45 40 40 45 45 41 42 39 37 34 33 31 25 22 18 22 18 18 20 23 20 17 14 14 12 11 12 14 12 11
41 41 42 43 47 51 54 57 59 58 55 50 50 48 48 44 48 45 45 44 42 39 39 38 30 27 27 23 23 20 25 25 22 19 17 16 15 15 14 14 13 13 11
44 45 44 47 51 52 51 52 57 59 57 56 51 45 44 43 44 40 38 40 42 41 41 37 29 29 24 38 35 30 30 25 23 19 17 17 15 15 15 15 13 11 10
45 42 43 48 48 47 47 47 45 45 52 54 50 50 41 36 39 34 32 34 32 31 31 28 28 28 34 32 32 34 30 27 23 19 18 17 14 15 12 13 14 13 11
45 38 32 26 29 18 21 27 35 39 40 52 46 43 41 38 33 30 31 26 25 30 29 30 30 33 35 37 36 30 29 27 23 22 20 17 17 14 13 11 15 14 13
35 24 17 13 11 10 3 7 28 35 34 36 41 38 37 34 36 34 29 26 29 27 29 35 42 37 35 33 32 28 26 24 24 25 22 19 16 15 14 12 11 12 14
24 18 10 1 5 5 17 26 32 34 35 34 35 40 39 36 35 34 31 27 21 32 38 32 30 31 35 35 30 26 25 25 25 21 19 17 17 15 12 12 10 11 12
22 19 2 3 11 18 20 25 32 35 35 34 34 36 38 37 32 27 22 24 33 36 32 31 34 35 33 30 28 27 27 25 22 19 17 18 16 13 10 11 9 7 10
18 18 16 20 16 15 21 28 32 32 32 34 39 34 29 28 24 27 31 36 40 37 32 35 34 31 30 31 30 29 25 23 22 19 18 17 14 11 13 13 11 8 10
20 18 25 27 29 32 33 31 29 28 31 35 36 33 33 38 36 35 35 31 26 29 32 30 30 32 29 27 25 24 23 20 19 20 19 17 14 12 13 14 11 10 9
20 17 22 29 32 36 39 43 45 45 45 46 47 45 45 39 29 25 30 32 32 31 29 31 31 30 27 25 23 20 19 19 19 19 16 15 15 14 14 14 12 10 9
17 24 27 30 35 41 45 45 45 46 47 45 42 41 39 38 37 35 33 33 33 33 30 28 26 25 24 24 23 22 20 19 18 15 15 13 13 12 12 12 11 9 6
25 23 25 30 35 39 43 44 45 45 45 45 44 42 40 38 36 34 33 32 32 29 27 26 25 24 23 21 20 18 18 17 15 14 13 12 13 15 14 12 10 11 8
Wind_Direction
226 247 238 236 240 236 242 246 241 246 253 266 255 254 258 258 257 251 251 257 255 256 258 266 270 268 269 267 264 264 273 266 280 286 290 281 277 267 256 252 266 263 272
233 242 238 240 242 237 239 244 242 245 250 257 264 265 257 253 257 260 260 260 261 265 263 265 260 263 261 262 266 260 265 270 280 287 287 273 267 263 247 247 252 258 273
245 243 244 243 244 243 241 244 245 248 251 252 257 264 270 270 268 269 268 263 265 272 260 272 270 263 259 256 251 260 262 267 283 280 278 273 263 244 250 239 248 259 270
250 250 255 254 252 247 246 243 243 246 248 251 256 262 268 270 271 280 286 287 279 273 274 270 267 265 264 260 259 259 266 277 284 275 268 259 256 248 240 242 244 254 270
273 264 261 259 259 256 247 245 243 244 244 247 253 257 261 262 269 276 288 289 284 281 269 267 267 265 259 266 273 255 257 281 287 281 265 253 245 239 238 242 245 251 262
280 268 282 267 256 255 251 246 246 245 245 246 250 251 256 262 269 270 283 288 288 295 277 274 266 265 259 254 268 244 269 279 276 265 250 252 249 242 245 241 239 245 251
283 278 272 272 271 266 258 254 252 248 246 248 251 250 252 260 268 271 278 282 289 291 293 276 273 263 266 259 234 260 269 268 274 245 248 250 247 236 249 238 240 246 252
284 281 273 266 261 257 256 254 254 248 246 252 251 250 253 256 264 269 274 273 282 286 288 282 272 265 262 262 259 251 249 249 247 257 251 250 245 239 238 245 249 251 247
274 274 273 271 268 262 258 257 256 254 253 253 251 251 250 256 260 266 267 270 274 285 291 284 273 267 258 256 262 254 249 230 224 245 240 224 230 236 236 234 229 230 245
271 269 267 266 265 262 262 261 262 259 257 256 253 253 255 256 256 260 261 263 268 281 289 279 277 263 257 252 249 246 248 228 221 229 230 223 233 236 233 231 233 239 249
270 268 267 264 263 262 263 263 260 256 258 255 254 250 250 253 255 253 254 255 264 279 283 284 278 260 251 250 241 244 237 229 233 219 221 230 235 237 237 237 239 242 250
275 272 270 268 267 265 262 262 258 251 244 245 247 248 248 250 251 252 251 251 259 268 277 282 282 263 247 243 234 241 227 230 219 210 214 226 227 233 242 240 233 230 226
272 269 268 267 265 263 258 250 245 240 237 238 236 237 241 244 246 248 249 249 254 264 276 279 282 255 244 247 223 219 225 219 224 211 207 208 223 232 224 210 207 200 197
275 275 273 268 263 259 254 249 243 240 236 233 232 233 233 239 243 241 240 243 250 258 268 279 273 245 237 260 208 210 218 222 204 196 193 209 210 194 177 179 184 194 196
284 281 277 276 274 269 263 253 248 243 234 230 229 228 229 230 238 238 238 243 250 257 265 277 263 237 232 216 201 205 208 194 192 190 201 199 187 182 179 189 192 190 196
283 284 283 280 276 266 255 248 247 245 242 232 225 224 227 230 231 234 235 241 246 253 264 263 239 236 224 199 197 205 192 190 192 196 192 184 179 182 190 193 196 193 197
290 282 281 277 272 268 259 244 235 239 235 233 228 218 220 220 224 228 230 234 244 245 233 232 230 225 199 203 204 196 185 189 195 190 180 173 177 186 200 200 196 191 195
300 300 294 293 289 277 262 246 227 213 213 213 217 218 208 205 203 216 233 241 236 208 213 212 201 190 203 203 188 185 189 188 189 181 174 184 188 196 196 193 193 195 197
325 329 316 288 285 313 294 191 191 185 195 188 201 204 202 206 216 226 233 229 207 210 200 196 187 189 201 189 184 187 187 187 182 180 178 186 194 201 196 200 199 208 213
350 3 20 132 21 80 107 118 138 147 155 172 184 189 191 197 210 221 218 202 185 187 188 186 199 209 194 185 187 185 180 176 175 177 185 193 196 199 201 203 210 204 205
25 44 13 251 115 102 115 125 133 145 156 163 167 175 182 185 185 192 193 170 181 175 179 198 184 174 177 179 177 171 169 167 169 174 178 173 183 189 189 165 153 161 179
64 65 95 107 136 139 122 116 126 135 144 148 146 149 156 147 139 147 161 173 179 179 181 164 164 169 169 166 165 163 159 163 169 173 172 175 175 161 157 152 147 141 157
93 96 94 97 106 107 114 123 127 131 132 132 133 132 140 140 146 158 167 171 171 166 158 161 159 155 156 159 158 159 161 166 166 166 171 171 164 154 155 152 144 153 158
109 119 99 107 109 111 111 115 120 122 125 130 137 139 142 134 129 133 141 142 145 148 150 149 148 150 149 150 152 154 156 152 153 161 162 158 160 159 154 156 166 172 175
121 109 116 120 121 116 121 125 128 132 135 136 134 133 134 132 135 136 138 141 143 141 142 146 149 153 154 154 154 155 155 156 158 157 157 159 156 159 166 164 166 159 152
131 137 127 130 125 123 123 124 124 125 124 125 127 131 135 136 135 135 136 138 141 144 146 150 152 155 155 156 158 155 159 157 157 157 161 164 169 168 168 160 156 150 149